Wind_Speed
26 24 25 22 23 28 30 28 28 28 27 27 26 28 29 27 26 26 29 27 24 21 19 20 20 18 16 15 16 14 15 17 18 19 22 22 23 25 25 24 28 26 29
29 29 28 29 25 27 31 30 30 30 29 29 29 29 28 29 30 28 30 29 29 26 24 25 24 22 22 20 20 19 19 18 15 19 20 20 19 19 19 19 20 23 24
32 31 30 31 29 30 35 34 32 32 32 33 32 31 32 32 31 30 30 31 30 32 32 32 30 30 29 28 28 29 26 25 21 22 23 21 19 21 19 20 20 20 22
35 35 32 36 33 33 36 39 36 35 34 35 35 34 34 32 32 31 31 31 31 31 35 38 37 36 36 34 33 32 33 31 29 29 28 27 25 24 27 28 25 26 26
39 38 34 32 36 35 39 40 41 38 38 36 35 34 33 33 33 32 31 31 31 31 33 34 36 39 40 40 37 34 33 34 35 35 33 31 32 32 31 31 32 30 30
43 43 41 38 36 38 37 41 42 39 39 39 38 39 38 38 38 38 38 39 39 37 37 38 38 39 39 40 40 37 37 38 37 40 40 38 37 36 35 34 36 34 33
47 47 47 47 44 42 43 43 44 43 45 46 44 44 43 43 44 44 44 44 45 44 43 43 43 45 44 43 44 43 41 38 40 43 43 43 42 43 41 41 40 38 38
52 50 52 53 52 50 47 48 47 48 50 52 52 52 51 50 50 50 50 50 51 52 51 49 47 48 48 49 51 50 49 46 45 44 44 44 44 44 45 44 45 44 43
58 56 56 58 56 56 54 53 52 52 53 53 55 58 60 60 58 58 57 57 56 55 55 54 53 53 51 52 52 53 53 52 52 52 50 51 51 50 50 49 49 49 48
62 64 62 64 59 61 62 59 57 59 57 59 59 58 59 59 60 60 62 62 61 60 61 60 59 59 57 57 57 58 59 60 60 59 58 57 56 58 55 55 54 53 53
68 67 68 68 67 67 67 66 63 66 65 65 65 64 65 66 65 67 68 67 69 68 67 68 67 66 63 62 65 64 64 63 63 62 63 63 61 60 59 58 57 57 58
73 74 75 74 74 69 70 71 72 70 74 72 72 71 70 70 72 74 74 74 74 74 75 75 73 73 73 71 70 70 69 66 65 65 63 62 62 61 60 60 60 59 60
76 77 79 79 78 79 78 77 77 80 78 79 79 79 77 79 79 81 81 81 78 78 79 79 80 78 78 79 79 77 74 71 70 69 69 69 68 68 67 65 65 65 64
76 80 79 79 83 83 81 82 85 86 87 82 83 84 87 87 85 86 86 85 86 85 87 85 82 83 85 87 88 83 78 77 78 76 75 77 75 76 75 73 71 72 71
79 80 80 82 81 80 82 84 86 87 87 88 90 91 91 90 93 93 92 92 92 93 94 95 93 92 91 93 90 88 87 86 86 86 84 84 84 84 82 82 82 81 79
88 87 88 87 87 88 87 87 86 85 87 86 87 89 90 89 90 92 94 95 97 96 97 98 101 98 98 97 96 95 96 95 94 95 94 92 93 93 92 92 91 90 90
76 84 92 97 96 94 94 96 96 96 96 96 94 95 96 95 96 94 94 95 96 99 99 99 99 100 101 100 100 102 102 100 101 102 104 102 102 100 101 98 97 95 96
58 63 70 78 85 90 93 93 92 96 97 97 99 99 99 100 101 102 102 103 104 105 105 106 107 108 108 107 106 107 107 106 105 104 104 106 105 104 103 101 99 100 97
49 55 60 65 67 69 72 77 81 84 87 90 92 95 96 99 101 103 102 104 104 104 104 105 106 106 107 107 108 110 109 109 110 107 108 109 106 104 104 101 101 99 98
45 46 48 51 56 61 66 71 73 74 77 79 81 82 82 83 85 87 90 92 95 97 99 101 101 102 102 102 103 103 104 105 105 104 106 107 107 106 105 104 103 101 101
51 53 55 56 58 60 61 62 65 67 67 68 70 73 78 84 85 85 87 87 86 86 88 88 89 90 90 91 92 91 93 96 97 97 96 97 97 98 97 98 99 97 97
57 58 60 63 64 67 68 68 68 69 70 71 73 73 71 70 70 74 74 77 79 82 85 90 92 92 92 91 91 93 92 92 91 91 90 90 91 90 90 90 90 90 89
65 66 69 71 72 74 74 76 77 77 76 76 77 77 78 78 78 79 78 78 79 79 79 80 82 85 88 90 92 93 94 94 95 95 95 95 93 93 93 93 92 91 90
72 74 78 79 81 81 81 82 82 83 84 84 84 83 83 84 85 85 85 86 87 87 88 87 86 84 84 83 82 85 88 90 93 97 97 96 96 95 95 94 93 92 91
82 82 87 88 88 88 89 88 89 88 89 90 91 90 89 89 90 89 90 92 95 95 95 94 93 91 89 88 87 87 87 87 86 87 90 89 88 88 90 92 95 97 97
88 91 94 96 95 95 95 95 95 96 97 96 96 96 97 96 96 96 97 97 98 99 100 100 99 97 96 95 96 95 93 93 93 92 91 93 94 92 90 89 88 89 93
Wind_Direction
225 222 224 232 237 227 216 211 212 212 215 221 223 220 225 227 228 226 230 238 246 250 247 227 229 238 245 244 240 243 249 243 239 241 240 243 252 259 262 258 261 262 262
230 231 232 234 242 235 224 222 218 216 216 217 222 225 225 227 230 229 233 238 243 244 238 236 243 249 254 262 264 260 251 251 252 242 241 243 250 252 258 259 257 258 260
230 232 235 235 239 236 227 225 225 221 221 223 223 226 229 231 233 234 237 239 241 241 240 240 246 251 254 262 269 271 265 257 250 251 248 241 240 243 246 258 255 259 260
232 230 235 234 238 236 234 230 228 230 232 231 230 231 234 233 234 237 241 245 245 246 246 244 247 250 253 259 261 263 264 258 251 248 246 245 249 252 251 265 260 258 258
232 233 233 237 238 241 234 237 236 233 234 237 240 243 245 245 245 246 246 247 251 252 251 252 255 253 252 255 260 260 258 258 258 256 255 257 257 257 261 264 265 264 267
231 234 233 233 235 236 234 236 238 240 238 237 238 240 242 247 250 252 253 256 257 260 258 255 257 261 259 258 256 260 259 256 256 255 261 265 265 262 263 265 266 273 277
230 234 237 238 237 237 241 243 242 246 248 245 243 243 245 248 253 256 259 261 263 264 269 265 267 264 263 263 264 265 260 262 260 261 260 264 267 270 269 270 271 274 276
233 236 240 242 241 242 244 244 246 247 248 249 249 247 250 252 255 257 261 263 263 264 264 264 268 270 269 266 267 267 266 263 263 261 264 265 264 268 271 272 273 274 275
239 241 241 244 246 246 248 251 252 250 250 249 249 250 251 253 255 259 262 263 263 262 264 266 269 269 269 270 268 269 265 265 265 267 267 267 266 269 270 271 273 273 275
239 242 243 241 244 249 250 250 255 256 254 254 253 252 254 256 257 261 264 265 264 263 264 264 267 269 269 268 269 267 268 271 271 268 268 269 270 271 273 273 272 273 274
242 245 244 242 244 246 249 251 253 257 257 257 258 259 255 258 259 262 263 265 267 268 267 267 268 269 269 269 269 270 269 270 271 269 270 271 272 271 272 271 272 271 271
242 243 245 245 245 244 248 249 251 251 254 255 255 257 258 258 260 261 262 264 266 267 268 268 270 271 272 274 274 273 269 268 268 268 267 268 269 269 272 274 275 273 274
236 241 243 245 245 246 249 250 250 252 252 252 253 253 255 258 259 260 261 263 265 268 269 268 268 269 272 273 275 274 271 268 267 268 269 269 269 269 272 274 274 274 274
237 237 240 243 245 246 248 251 251 249 252 253 255 254 255 258 258 260 262 263 264 264 267 267 268 268 269 270 272 272 270 269 269 270 270 269 271 271 271 272 271 272 272
243 243 246 245 247 247 246 248 250 251 251 255 253 255 256 257 256 257 259 261 263 262 264 261 264 264 264 266 266 267 268 268 268 270 271 271 271 272 271 272 273 272 271
252 250 249 249 249 249 249 249 249 251 252 253 255 256 257 257 256 256 256 258 257 258 259 259 260 262 262 263 264 265 266 267 268 268 270 269 269 269 270 271 273 273 272
255 255 256 256 258 259 260 259 259 257 256 258 257 256 257 257 257 257 257 257 257 257 258 259 259 259 260 263 263 264 265 265 268 267 268 269 268 269 271 270 268 269 269
261 260 260 260 260 261 262 264 264 263 264 263 263 264 263 265 264 264 264 262 261 259 260 261 262 262 263 264 265 265 265 266 267 269 269 269 269 271 270 272 271 269 267
267 267 266 264 262 263 264 266 265 264 264 265 266 267 267 265 264 263 263 263 263 262 263 263 264 264 264 264 263 264 265 265 266 266 266 266 267 267 268 268 268 270 269
270 270 269 268 267 266 264 263 263 263 263 263 263 263 264 265 265 266 266 265 266 266 266 265 265 265 265 264 265 265 264 265 265 265 264 264 265 265 266 266 266 266 266
275 275 274 273 271 269 268 267 266 263 262 262 262 263 263 262 262 261 261 262 263 263 263 263 264 264 264 264 263 263 264 265 266 266 266 266 266 266 266 266 266 267 266
277 277 277 276 274 273 272 270 268 266 265 266 265 264 262 263 262 261 260 260 261 261 261 261 261 261 261 262 262 262 262 263 263 264 265 265 265 265 265 264 264 264 264
278 279 278 276 274 273 272 272 271 270 268 266 264 263 263 264 264 264 265 265 265 265 265 265 264 262 262 261 262 263 263 262 262 262 263 263 263 263 264 264 264 263 263
278 278 278 276 275 275 273 273 270 270 271 270 269 267 265 263 262 262 263 264 264 264 264 264 265 265 265 265 264 265 264 265 265 265 263 262 263 263 263 264 264 264 263
279 277 277 276 275 273 272 270 269 269 267 267 268 267 267 267 266 266 265 265 263 263 263 263 264 264 266 268 266 265 265 264 265 266 268 267 265 265 265 265 264 264 264
275 274 274 274 273 271 269 268 266 266 266 265 264 265 266 265 265 265 264 264 263 263 263 262 263 263 263 263 265 266 266 266 267 268 268 270 272 269 268 267 265 264 263
Height
10876 10879 10881 10883 10883 10885 10886 10888 10890 10892 10894 10895 10896 10898 10899 10900 10901 10903 10905 10906 10907 10907 10908 10908 10909 10911 10912 10913 10914 10912 10913 10913 10912 10912 10912 10912 10912 10912 10910 10909 10910 10908 10908
10873 10875 10877 10879 10880 10882 10883 10885 10886 10887 10890 10891 10892 10893 10894 10896 10897 10898 10900 10901 10903 10904 10905 10905 10906 10906 10907 10907 10908 10910 10910 10909 10907 10908 10908 10908 10909 10908 10907 10906 10906 10905 10905
10867 10870 10872 10874 10876 10877 10879 10881 10882 10884 10885 10886 10887 10889 10890 10891 10893 10894 10896 10897 10897 10897 10899 10900 10900 10901 10903 10903 10904 10904 10904 10905 10903 10903 10904 10903 10903 10904 10903 10903 10901 10901 10900
10862 10865 10867 10868 10871 10872 10874 10876 10878 10879 10879 10881 10882 10884 10885 10886 10888 10889 10890 10891 10892 10893 10893 10894 10895 10895 10896 10897 10898 10898 10899 10899 10899 10899 10899 10899 10898 10899 10899 10898 10896 10896 10895
10856 10859 10861 10862 10865 10867 10868 10870 10872 10873 10874 10875 10876 10877 10878 10879 10880 10882 10883 10885 10886 10887 10888 10888 10888 10888 10889 10891 10891 10891 10891 10892 10893 10893 10894 10893 10893 10893 10892 10892 10892 10890 10890
10849 10852 10855 10856 10858 10861 10862 10864 10866 10867 10867 10868 10870 10871 10872 10873 10874 10875 10876 10877 10878 10879 10880 10881 10881 10881 10882 10883 10884 10883 10884 10885 10885 10886 10887 10887 10887 10887 10885 10885 10885 10883 10883
10841 10844 10847 10850 10851 10853 10855 10856 10858 10861 10861 10862 10863 10864 10865 10866 10867 10867 10868 10868 10869 10869 10870 10872 10872 10874 10874 10874 10875 10875 10876 10877 10877 10878 10879 10880 10879 10880 10878 10877 10878 10877 10876
10833 10836 10839 10841 10843 10845 10847 10848 10851 10852 10852 10854 10855 10856 10857 10858 10859 10859 10859 10860 10860 10860 10861 10862 10863 10864 10865 10866 10865 10866 10867 10868 10868 10868 10869 10870 10869 10871 10870 10871 10870 10870 10869
10825 10828 10831 10832 10834 10836 10838 10839 10841 10842 10843 10844 10845 10846 10848 10849 10849 10849 10850 10850 10850 10850 10851 10852 10852 10853 10854 10855 10856 10855 10856 10857 10859 10859 10859 10860 10858 10859 10860 10862 10862 10861 10861
10816 10819 10820 10823 10824 10826 10827 10829 10830 10832 10833 10834 10835 10836 10837 10837 10838 10838 10839 10839 10839 10839 10839 10840 10841 10841 10841 10843 10844 10844 10844 10846 10847 10848 10848 10849 10849 10849 10850 10852 10853 10852 10853
10806 10807 10810 10812 10813 10815 10817 10818 10819 10820 10821 10822 10823 10824 10825 10826 10827 10826 10826 10827 10826 10827 10828 10828 10829 10829 10830 10830 10831 10831 10831 10832 10833 10834 10836 10837 10838 10839 10839 10840 10840 10841 10843
10795 10796 10798 10800 10801 10803 10804 10805 10806 10807 10808 10808 10809 10810 10811 10812 10813 10814 10813 10813 10813 10814 10814 10815 10815 10816 10817 10817 10818 10818 10818 10818 10819 10820 10822 10824 10825 10827 10828 10829 10829 10829 10829
10781 10783 10784 10785 10787 10789 10790 10791 10792 10793 10793 10794 10794 10795 10796 10796 10797 10798 10799 10800 10800 10800 10800 10800 10801 10801 10801 10802 10803 10804 10804 10804 10804 10806 10807 10810 10812 10813 10814 10816 10817 10817 10817
10766 10767 10769 10770 10772 10774 10775 10776 10778 10779 10779 10779 10780 10781 10782 10783 10784 10784 10784 10784 10785 10785 10785 10785 10785 10785 10786 10787 10788 10789 10789 10789 10789 10788 10790 10793 10795 10797 10799 10803 10802 10802 10802
10752 10753 10754 10755 10756 10758 10759 10760 10761 10761 10762 10763 10764 10765 10766 10767 10768 10769 10768 10769 10769 10769 10769 10769 10769 10768 10768 10769 10771 10771 10771 10771 10772 10771 10774 10775 10778 10779 10783 10784 10785 10786 10788
10737 10738 10740 10740 10741 10741 10742 10742 10743 10743 10745 10746 10746 10747 10748 10748 10749 10749 10749 10750 10750 10751 10751 10751 10751 10750 10752 10751 10751 10752 10753 10753 10754 10754 10754 10759 10759 10763 10766 10766 10768 10769 10770
10725 10724 10724 10723 10723 10723 10724 10724 10724 10726 10727 10727 10727 10727 10728 10729 10730 10730 10729 10729 10730 10731 10730 10730 10730 10730 10732 10732 10731 10731 10732 10734 10734 10735 10736 10738 10739 10742 10744 10747 10751 10752 10752
10708 10707 10706 10706 10706 10704 10703 10703 10703 10704 10704 10704 10704 10705 10705 10706 10706 10707 10707 10708 10709 10708 10708 10708 10708 10709 10710 10710 10710 10710 10710 10710 10712 10714 10714 10716 10718 10720 10722 10722 10725 10730 10733
10698 10696 10695 10692 10690 10687 10686 10684 10683 10683 10683 10682 10680 10681 10681 10682 10682 10682 10682 10683 10684 10684 10684 10684 10684 10684 10684 10685 10687 10688 10687 10688 10689 10690 10692 10693 10695 10698 10700 10702 10703 10705 10708
10684 10682 10680 10677 10675 10672 10669 10667 10666 10664 10662 10662 10661 10661 10661 10660 10659 10658 10658 10659 10659 10659 10659 10659 10658 10658 10658 10659 10660 10661 10662 10662 10664 10665 10668 10671 10672 10674 10676 10680 10683 10685 10687
10668 10666 10664 10661 10658 10656 10653 10650 10648 10646 10644 10643 10642 10642 10641 10639 10639 10638 10639 10638 10637 10637 10638 10638 10638 10638 10637 10636 10637 10639 10639 10640 10640 10642 10644 10646 10648 10650 10653 10656 10659 10662 10666
10652 10650 10647 10644 10641 10637 10634 10632 10629 10627 10625 10624 10623 10622 10620 10619 10617 10617 10616 10615 10615 10615 10615 10616 10616 10617 10617 10616 10615 10616 10619 10620 10620 10621 10624 10625 10627 10629 10630 10633 10637 10640 10643
10634 10631 10626 10623 10619 10617 10615 10612 10610 10608 10606 10604 10603 10601 10600 10599 10597 10596 10595 10594 10594 10593 10593 10593 10592 10593 10594 10594 10593 10592 10593 10597 10598 10599 10602 10605 10607 10608 10609 10611 10614 10619 10622
10613 10608 10604 10600 10597 10594 10592 10590 10588 10586 10584 10582 10581 10580 10578 10576 10575 10574 10573 10572 10571 10570 10570 10570 10571 10571 10572 10573 10573 10574 10573 10573 10574 10573 10579 10583 10584 10587 10589 10589 10591 10595 10599
10589 10583 10578 10574 10572 10569 10566 10564 10562 10559 10558 10556 10554 10553 10553 10552 10551 10551 10549 10548 10547 10547 10546 10546 10548 10549 10551 10551 10552 10553 10553 10553 10554 10554 10549 10554 10559 10564 10567 10569 10571 10573 10576
10559 10553 10550 10547 10544 10541 10538 10535 10534 10531 10530 10528 10527 10525 10525 10524 10523 10521 10520 10519 10519 10519 10519 10520 10522 10524 10525 10526 10527 10528 10529 10531 10533 10534 10535 10531 10527 10533 10539 10543 10548 10552 10556